EW4939 Weather Reports


Display with metric or nautical units.
time (UTC)temp
F
wind
direction
speed
MPH
gust
MPH
rain 1hr
in
rain 24hr
in
rain mn
in
humidity
%
barometer
mb
20260506085651 43 1 2.0 2.0 0.00 0.63 0.63 98 1008.8
20260506085147 43 48 1.0 2.0 0.00 0.63 0.63 98 1008.6
20260506084644 43 336 2.0 4.0 0.00 0.63 0.63 99 1009.0
20260506084141 43 13 2.0 3.0 0.00 0.63 0.63 99 1009.2
20260506083638 43 26 1.0 3.0 0.00 0.63 0.63 99 1009.3
20260506083136 43 17 1.0 2.0 0.07 0.63 0.63 99 1009.0
20260506082632 43 22 2.0 2.0 0.07 0.63 0.63 99 1009.2
20260506082128 43 352 3.0 4.0 0.00 0.62 0.62 99 1009.1
20260506081626 44 336 4.0 6.0 0.00 0.62 0.62 99 1008.6
20260506081124 44 355 1.0 3.0 0.00 0.62 0.62 99 1008.3
20260506080621 44 349 3.0 6.0 0.00 0.62 0.62 99 1008.5
20260506080118 44 353 3.0 3.0 0.00 0.62 0.62 99 1008.7
20260506073101 45 1 4.0 9.0 0.12 0.59 0.59 99 1008.6
20260506072558 46 12 4.0 6.0 0.05 0.58 0.58 99 1008.7
20260506072056 46 9 2.0 6.0 0.07 0.57 0.57 99 1008.8
20260506071553 47 344 4.0 7.0 0.07 0.57 0.57 99 1008.5
20260506071051 47 349 2.0 4.0 0.12 0.56 0.56 99 1008.3
20260506070548 46 357 2.0 4.0 0.24 0.56 0.56 99 1008.3
20260506062022 47 304 2.0 7.0 0.05 0.47 0.47 99 1008.0
20260506061518 47 324 1.0 2.0 0.07 0.46 0.46 99 1008.0
20260506061016 47 22 3.0 4.0 0.12 0.46 0.46 99 1007.9
20260506060514 47 25 2.0 7.0 0.12 0.45 0.45 99 1007.7
20260506050943 49 346 2.0 3.0 0.31 0.33 0.33 99 1007.7
20260506050441 49 32 2.0 4.0 0.31 0.31 0.31 99 1007.8
20260506044931 50 24 3.0 6.0 0.35 0.23 0.23 99 1007.4
20260506044429 50 346 2.0 3.0 0.35 0.21 0.21 99 1007.3
20260506043926 50 285 2.0 3.0 0.14 0.16 0.16 99 1007.6
20260506043423 50 37 2.0 2.0 0.19 0.15 0.15 99 1007.3
20260506042921 50 314 4.0 7.0 0.17 0.14 0.14 99 1007.4
20260506042420 51 6 1.0 3.0 0.17 0.12 0.12 99 1007.4
20260506041918 51 12 2.0 4.0 0.19 0.11 0.11 99 1007.5
20260506041415 51 35 0.0 1.0 0.31 0.09 0.09 99 1007.6
20260506040912 51 20 3.0 3.0 0.54 0.08 0.08 99 1007.5
20260506040410 52 334 3.0 7.0 0.42 0.03 0.03 99 1007.3
20260506035905 53 344 2.0 3.0 0.24 0.83 0.83 99 1007.3
20260506035403 53 354 0.0 1.0 0.12 0.80 0.80 99 1006.8
20260506034900 54 9 2.0 2.0 0.12 0.79 0.79 99 1006.7
20260506034357 54 0 1.0 2.0 0.07 0.78 0.78 99 1006.7
20260506033854 55 334 0.0 2.0 0.00 0.77 0.77 99 1006.7
20260506033351 55 300 0.0 0.0 0.00 0.77 0.77 99 1007.2
20260506032848 55 356 1.0 1.0 0.00 0.77 0.77 99 1006.8
20260506032344 56 308 1.0 2.0 0.00 0.77 0.77 99 1006.7
20260506031841 59 230 0.0 0.0 0.00 0.77 0.77 99 1007.0
20260506031339 59 162 0.0 0.0 0.00 0.77 0.77 99 1006.9
20260506030836 59 162 0.0 0.0 0.00 0.77 0.77 99 1006.8
20260506030334 59 162 0.0 0.0 0.05 0.77 0.77 99 1006.9
20260506025831 59 162 0.0 0.0 0.05 0.77 0.77 99 1006.9
20260506025327 59 162 0.0 0.0 0.07 0.76 0.76 99 1007.0
20260506024824 59 162 0.0 0.0 0.12 0.76 0.76 99 1007.0
20260506024321 59 162 0.0 0.0 0.19 0.75 0.75 99 1007.2
20260506023817 59 161 0.0 0.0 0.19 0.74 0.74 99 1007.4
20260506023314 59 161 0.0 0.0 0.12 0.72 0.72 99 1007.6
20260506022811 59 161 0.0 0.0 0.19 0.71 0.71 99 1008.0
20260506022309 59 161 0.0 0.0 0.17 0.70 0.70 99 1007.9
20260506021807 59 161 0.0 0.0 0.05 0.68 0.68 99 1008.0
20260506021303 59 161 0.0 0.0 0.07 0.67 0.67 99 1008.0
20260506020800 59 161 0.0 0.0 0.07 0.67 0.67 99 1007.9
20260506020258 59 161 0.0 0.0 0.12 0.66 0.66 99 1007.9
20260506015755 59 161 0.0 0.0 0.24 0.66 0.66 99 1007.7
20260506015253 59 162 0.0 0.0 0.24 0.64 0.64 99 1007.6
20260506014749 59 162 0.0 0.0 0.12 0.61 0.61 99 1007.8
20260506014246 59 162 0.0 0.0 0.07 0.60 0.60 99 1008.0
20260506013743 59 162 0.0 0.0 0.00 0.59 0.59 99 1007.8
20260506013240 59 162 0.0 0.0 0.00 0.59 0.59 99 1007.7
20260506012736 59 162 0.0 0.0 0.00 0.59 0.59 99 1007.8
20260506012233 59 162 0.0 0.0 0.00 0.59 0.59 99 1007.7
20260506011731 59 162 0.0 0.0 0.05 0.59 0.59 99 1007.4
20260506011227 59 163 0.0 0.0 0.12 0.59 0.59 99 1007.6
20260506010725 59 152 0.0 0.0 0.19 0.58 0.58 99 1007.6
20260506010222 59 218 0.0 0.0 0.24 0.57 0.57 99 1007.6
20260506005720 59 218 0.0 0.0 0.35 0.55 0.55 99 1007.7
20260506005216 59 219 0.0 0.0 0.31 0.52 0.52 99 1007.9
20260506004712 59 220 0.0 0.0 0.19 0.49 0.49 99 1008.0
20260506004210 59 220 0.0 0.0 0.07 0.47 0.47 99 1007.7
20260506003706 59 202 0.0 0.0 0.00 0.46 0.46 99 1007.3
20260506003202 60 250 0.0 0.0 0.00 0.46 0.46 99 1007.4
20260506002658 60 130 0.0 0.0 0.00 0.46 0.46 99 1007.5
20260506002154 60 130 0.0 0.0 0.05 0.46 0.46 99 1007.3
20260506001650 60 130 0.0 0.0 0.05 0.46 0.46 99 1007.2
20260506001148 60 130 0.0 0.0 0.07 0.45 0.45 99 1007.2
20260506000645 60 129 0.0 0.0 0.07 0.45 0.45 99 1006.9
20260506000142 60 129 0.0 0.0 0.00 0.44 0.44 99 1006.8
20260505235640 60 129 0.0 0.0 0.05 0.44 0.44 99 1007.0
20260505235137 60 129 0.0 0.0 0.05 0.44 0.44 99 1007.0
20260505234634 60 159 0.0 1.0 0.00 0.43 0.43 99 1007.3
20260505234131 60 167 0.0 0.0 0.00 0.43 0.43 99 1007.0
20260505233628 60 167 0.0 0.0 0.07 0.43 0.43 99 1007.0
20260505233126 60 162 1.0 2.0 0.12 0.43 0.43 99 1007.5
20260505232623 60 147 0.0 1.0 0.12 0.42 0.42 99 1007.6
20260505232120 60 183 0.0 1.0 0.07 0.41 0.41 99 1007.5
20260505231617 60 191 1.0 2.0 0.00 0.40 0.40 99 1007.7
20260505231116 60 181 0.0 0.0 0.00 0.40 0.40 99 1007.5
20260505230614 60 160 0.0 0.0 0.00 0.40 0.40 99 1007.5
20260505230109 60 155 0.0 0.0 0.00 0.40 0.40 98 1007.5
20260505225606 60 164 1.0 1.0 0.00 0.40 0.40 98 1007.4
20260505225102 61 178 1.0 2.0 0.00 0.40 0.40 98 1007.7
20260505224559 61 155 2.0 2.0 0.00 0.40 0.40 98 1007.6
20260505224056 61 180 0.0 0.0 0.00 0.40 0.40 98 1007.7
20260505223554 61 142 1.0 2.0 0.00 0.40 0.40 98 1007.7
20260505223050 61 167 2.0 2.0 0.00 0.40 0.40 98 1007.8
20260505222546 61 185 1.0 1.0 0.00 0.40 0.40 98 1007.9
20260505222042 61 146 5.0 7.0 0.00 0.40 0.40 98 1007.9
20260505221540 61 166 2.0 3.0 0.00 0.40 0.40 98 1007.9
20260505221036 60 172 0.0 2.0 0.00 0.40 0.40 98 1008.0
20260505220533 60 182 4.0 7.0 0.00 0.40 0.40 98 1008.1
20260505220031 60 166 1.0 3.0 0.00 0.40 0.40 99 1008.3
20260505215529 60 167 2.0 4.0 0.00 0.40 0.40 99 1008.1
20260505215026 60 177 1.0 3.0 0.05 0.40 0.40 98 1008.3
20260505214524 60 163 1.0 3.0 0.00 0.39 0.39 98 1008.2
20260505214021 60 326 1.0 2.0 0.00 0.39 0.39 98 1008.2
20260505213519 60 186 2.0 3.0 0.00 0.39 0.39 98 1008.3
20260505213015 61 186 3.0 4.0 0.07 0.39 0.39 98 1008.1
20260505212511 61 169 0.0 2.0 0.05 0.38 0.38 98 1008.3
20260505212009 61 193 1.0 2.0 0.07 0.37 0.37 98 1008.2
20260505211506 61 205 1.0 2.0 0.00 0.36 0.36 97 1008.2
20260505211002 61 159 1.0 4.0 0.00 0.36 0.36 97 1008.4
20260505210459 61 157 2.0 4.0 0.00 0.36 0.36 97 1008.5
20260505205956 61 163 2.0 3.0 0.00 0.36 0.36 97 1008.4
20260505205454 61 192 0.0 4.0 0.00 0.36 0.36 97 1008.4
20260505204950 61 170 2.0 3.0 0.07 0.36 0.36 97 1008.4
20260505204449 61 170 1.0 3.0 0.07 0.36 0.36 97 1008.3
20260505203946 61 152 0.0 2.0 0.00 0.35 0.35 97 1008.3
20260505203442 61 162 1.0 2.0 0.00 0.35 0.35 97 1008.4
20260505202938 61 151 1.0 4.0 0.00 0.35 0.35 97 1008.4
20260505202435 61 160 1.0 2.0 0.05 0.35 0.35 97 1008.4
20260505201931 61 267 0.0 3.0 0.05 0.35 0.35 97 1008.4
20260505201428 61 153 1.0 3.0 0.00 0.34 0.34 97 1008.6
20260505200926 61 155 0.0 1.0 0.07 0.34 0.34 97 1008.7
20260505200423 61 158 0.0 2.0 0.07 0.34 0.34 97 1008.5
20260505195919 61 268 1.0 1.0 0.05 0.33 0.33 96 1008.6
20260505195417 61 189 1.0 4.0 0.07 0.32 0.32 96 1008.7
20260505194914 61 169 0.0 0.0 0.12 0.32 0.32 95 1008.8
20260505194411 61 192 1.0 2.0 0.12 0.31 0.31 95 1008.9
20260505193911 61 224 1.0 2.0 0.12 0.30 0.30 94 1009.1
20260505193409 62 299 1.0 1.0 0.12 0.29 0.29 94 1009.3
20260505192907 62 190 1.0 4.0 0.12 0.28 0.28 93 1009.3
20260505192405 62 176 2.0 2.0 0.24 0.27 0.27 92 1009.4
20260505191902 63 161 1.0 3.0 0.38 0.26 0.26 90 1009.2
20260505191401 65 206 2.0 6.0 0.19 0.23 0.23 84 1009.1
20260505190857 67 199 1.0 4.0 0.00 0.20 0.20 76 1008.9
20260505190352 67 187 1.0 3.0 0.00 0.20 0.20 73 1008.7
20260505185848 68 183 0.0 6.0 0.00 0.20 0.20 72 1008.8
20260505185345 68 183 2.0 3.0 0.00 0.20 0.20 73 1008.7
20260505184841 68 228 1.0 8.0 0.00 0.20 0.20 71 1008.6
20260505184338 68 273 3.0 9.0 0.00 0.20 0.20 72 1008.8
20260505183835 68 165 3.0 4.0 0.00 0.20 0.20 69 1008.8
20260505183332 68 154 2.0 2.0 0.00 0.20 0.20 71 1008.9
20260505182829 68 202 2.0 2.0 0.00 0.20 0.20 71 1008.9
20260505182325 67 181 5.0 8.0 0.00 0.20 0.20 71 1008.9
20260505181822 67 158 4.0 7.0 0.00 0.20 0.20 71 1009.0
20260505181320 67 149 1.0 4.0 0.00 0.20 0.20 72 1008.9
20260505180816 67 183 2.0 4.0 0.00 0.20 0.20 71 1009.3
20260505180312 67 221 1.0 4.0 0.00 0.20 0.20 71 1009.2
20260505175809 67 192 4.0 6.0 0.00 0.20 0.20 70 1009.1
20260505175306 67 182 2.0 6.0 0.00 0.20 0.20 70 1009.2
20260505174802 67 205 2.0 7.0 0.00 0.20 0.20 70 1009.2
20260505174259 67 191 1.0 6.0 0.00 0.20 0.20 71 1009.1
20260505173755 67 179 2.0 8.0 0.00 0.20 0.20 71 1009.3
20260505173252 66 185 3.0 6.0 0.00 0.20 0.20 72 1009.4
20260505172749 66 222 3.0 4.0 0.00 0.20 0.20 71 1009.3
20260505172246 67 172 2.0 3.0 0.00 0.20 0.20 72 1009.5
20260505171746 66 187 2.0 4.0 0.00 0.20 0.20 70 1009.4
20260505171243 67 175 3.0 4.0 0.00 0.20 0.20 71 1009.4
20260505170740 67 155 4.0 7.0 0.00 0.20 0.20 70 1009.5
20260505170237 67 147 2.0 4.0 0.00 0.20 0.20 71 1009.5
20260505165732 67 149 2.0 3.0 0.00 0.20 0.20 72 1009.4
20260505165228 66 213 1.0 4.0 0.00 0.20 0.20 69 1009.4
20260505164724 66 158 1.0 3.0 0.00 0.20 0.20 71 1009.6
20260505164221 66 151 4.0 6.0 0.00 0.20 0.20 71 1009.4
20260505163719 66 170 3.0 6.0 0.00 0.20 0.20 72 1009.5
20260505163218 66 170 3.0 6.0 0.00 0.20 0.20 71 1009.5
20260505162715 66 216 1.0 3.0 0.00 0.20 0.20 71 1009.4
20260505162212 67 189 2.0 6.0 0.00 0.20 0.20 70 1009.5
20260505161708 66 201 1.0 6.0 0.00 0.20 0.20 71 1009.5
20260505161206 66 207 1.0 4.0 0.00 0.20 0.20 72 1009.6
20260505160704 66 233 1.0 6.0 0.00 0.20 0.20 72 1009.6
20260505160201 66 201 3.0 6.0 0.00 0.20 0.20 72 1009.4
20260505153140 66 157 1.0 2.0 0.00 0.20 0.20 74 1009.4
20260505152637 66 333 0.0 6.0 0.00 0.20 0.20 74 1009.4
20260505152133 66 158 1.0 6.0 0.00 0.20 0.20 72 1009.2
20260505151628 66 174 4.0 4.0 0.00 0.20 0.20 74 1009.4
20260505151126 67 120 2.0 3.0 0.00 0.20 0.20 75 1009.3
20260505150621 66 210 2.0 3.0 0.00 0.20 0.20 74 1009.1
20260505150119 66 213 2.0 4.0 0.00 0.20 0.20 76 1009.4
20260505140547 62 191 0.0 4.0 0.00 0.20 0.20 88 1009.1
20260505125001 58 141 2.0 4.0 0.00 0.20 0.20 96 1008.6
20260505124457 58 154 2.0 3.0 0.00 0.20 0.20 96 1008.4
20260505123953 58 153 2.0 4.0 0.00 0.20 0.20 97 1008.3
20260505123450 58 174 2.0 4.0 0.00 0.20 0.20 97 1008.7
20260505122946 58 147 2.0 2.0 0.00 0.20 0.20 98 1009.1
20260505122444 57 180 1.0 3.0 0.00 0.20 0.20 98 1009.1
20260505121940 57 158 2.0 4.0 0.00 0.20 0.20 98 1009.3
20260505121437 57 194 1.0 2.0 0.00 0.20 0.20 99 1009.2
20260505120933 57 143 1.0 3.0 0.00 0.20 0.20 99 1009.2
20260505120430 57 191 1.0 2.0 0.00 0.20 0.20 99 1009.2
20260505115929 57 190 2.0 3.0 0.00 0.20 0.20 99 1009.3
20260505115426 57 171 2.0 3.0 0.00 0.20 0.20 99 1009.4
20260505114924 57 170 2.0 3.0 0.00 0.20 0.20 99 1009.3
20260505114419 57 185 4.0 4.0 0.00 0.20 0.20 99 1009.2
20260505113916 57 171 1.0 4.0 0.00 0.20 0.20 99 1008.8
20260505113413 57 199 2.0 2.0 0.05 0.20 0.20 99 1008.8
20260505112908 57 176 2.0 3.0 0.00 0.19 0.19 99 1008.8
20260505112406 57 179 1.0 2.0 0.00 0.19 0.19 99 1008.6
20260505111902 56 179 2.0 3.0 0.00 0.19 0.19 99 1008.4
20260505111357 56 182 2.0 3.0 0.00 0.19 0.19 99 1008.4
20260505110853 56 171 2.0 3.0 0.00 0.19 0.19 99 1008.0
20260505110351 56 192 1.0 2.0 0.00 0.19 0.19 99 1008.0
20260505101821 57 184 0.0 0.0 0.12 0.18 0.18 97 1009.3
20260505101316 57 211 0.0 0.0 0.24 0.17 0.17 97 1009.4
20260505100812 57 25 0.0 0.0 0.31 0.16 0.16 96 1009.5
20260505100309 57 22 0.0 0.0 0.19 0.13 0.13 96 1009.6
20260505095805 57 14 0.0 0.0 0.17 0.11 0.11 96 1009.9
20260505095304 58 265 0.0 1.0 0.19 0.10 0.10 95 1010.0
20260505094758 58 2 0.0 0.0 0.12 0.08 0.08 95 1009.9
20260505094255 58 315 1.0 2.0 0.12 0.07 0.07 94 1009.7
20260505093751 58 330 0.0 2.0 0.07 0.06 0.06 93 1009.7
20260505093249 58 357 1.0 2.0 0.05 0.05 0.05 93 1009.4
20260505092745 58 304 1.0 2.0 0.05 0.05 0.05 92 1009.2
20260505092244 59 315 2.0 4.0 0.12 0.04 0.04 91 1009.2
20260505091741 59 354 1.0 2.0 0.12 0.03 0.03 89 1009.2
20260505091239 60 198 0.0 0.0 0.12 0.02 0.02 85 1008.5
20260505090736 61 94 1.0 1.0 0.05 0.01 0.01 83 1008.5
20260505090234 62 317 3.0 4.0 0.00 0.00 0.00 77 1008.9